CAPE
206 323 242 197 241 281 186 190 181 102 52 341 151 53 253 351 353 292 435 286 461 802 1182 1182 1196 1054 1031 1135 935 682 614 693 659 619 673 901 955 860 807 786 865 894 946 977 620 828 990 611 618
78 324 151 208 133 115 119 107 181 152 284 276 247 255 273 361 677 503 313 347 662 1041 1213 866 1132 952 1070 1155 1091 998 782 523 509 592 698 740 785 775 779 800 871 1028 1109 1117 1048 869 998 1174 1150
182 512 315 213 139 119 92 162 126 209 217 106 165 219 330 520 537 383 502 507 820 937 1139 963 1149 1136 1118 1033 1004 982 999 898 889 884 857 907 984 1006 855 866 883 1043 993 859 994 1154 1342 1125 979
786 199 327 185 198 238 168 53 159 158 126 112 97 161 466 716 401 612 673 624 658 759 1053 1425 1254 1272 1191 1204 1102 1028 938 946 998 1114 1086 1055 1160 1210 1116 1164 1044 1002 854 695 909 1164 1229 913 967
348 395 191 185 175 268 151 29 80 83 19 21 27 44 198 592 657 614 693 464 402 630 716 1421 1425 1307 1335 1413 1583 1501 1535 1400 1210 1317 1139 1386 1266 1226 1328 977 1139 1046 882 1118 1005 983 780 735 854
101 214 88 68 96 54 69 9 69 59 33 27 18 33 282 703 516 568 530 325 243 460 683 853 1495 1336 1198 1255 1313 1283 830 1261 1189 1233 1118 1165 1134 1343 1426 801 609 694 709 619 655 728 732 812 725
75 49 52 117 107 38 28 56 82 0 0 0 1 0 327 601 598 521 355 312 315 513 796 920 1293 1084 1265 1040 1068 1331 1088 1331 1033 1254 1058 1461 1348 1369 1053 1090 1121 1011 1040 1098 1132 1143 1164 1204 1276
1 24 61 171 147 28 33 31 0 0 0 14 85 43 0 374 534 465 287 241 178 227 328 744 1179 1069 1030 1007 1088 1221 1245 1385 1269 1380 1261 1574 1346 1365 1147 1031 882 1254 1275 1240 1264 1306 1176 1191 1234
146 89 147 233 238 167 13 16 0 0 0 16 13 20 83 256 270 298 216 152 211 200 225 569 924 1294 1173 805 940 1114 1551 1151 991 1049 821 1376 910 707 807 1042 1109 1310 1331 1261 1241 1302 765 631 463
36 72 184 256 391 185 0 6 16 28 0 0 55 114 170 97 117 95 84 49 62 105 212 186 354 549 799 947 962 1116 1053 789 834 725 916 768 678 854 1029 1170 1369 1123 1214 1163 1152 721 669 707 652
59 137 227 298 445 530 1 0 10 15 0 0 24 58 104 75 31 0 0 0 33 93 132 223 328 579 673 671 891 919 729 780 795 1192 1465 1214 952 1319 1001 694 619 811 967 867 878 1037 1005 835 836
269 273 142 212 320 302 25 0 0 5 2 0 27 51 78 67 9 2 2 48 78 62 69 93 259 345 488 536 540 797 577 1024 1073 839 1187 908 917 964 899 698 548 776 942 1160 1149 939 988 1148 1438
77 189 326 235 330 190 133 74 5 0 0 1 62 52 52 100 110 117 137 104 124 100 70 65 248 376 291 952 539 766 525 583 667 1006 1179 924 501 766 826 552 518 613 847 985 1147 973 961 1003 1182
14 96 45 67 217 193 66 75 27 0 3 3 0 0 19 91 132 216 237 226 162 152 74 55 229 440 299 647 553 605 534 528 936 731 727 1071 570 902 605 552 517 902 1219 1325 1260 1157 966 752 1169
423 22 32 47 144 159 131 72 19 9 5 13 24 10 14 56 166 160 226 316 300 247 134 49 119 362 303 414 469 470 525 465 458 367 637 1160 722 480 596 644 1041 1169 1087 1231 1483 1404 1276 1070 1123
8 2 69 46 185 134 149 107 33 0 0 0 18 27 20 83 126 221 269 307 414 347 188 63 14 62 280 173 361 244 276 270 283 279 595 919 863 511 465 603 802 933 1207 1310 1274 1287 1256 1261 1145
1 11 17 47 29 128 131 196 94 0 0 10 4 2 9 43 166 205 278 283 411 354 328 147 33 19 116 133 156 225 208 326 223 236 470 510 441 319 354 668 851 1074 1158 1272 1055 1040 1197 1135 1200
3 5 1 12 3 44 78 60 99 88 12 31 11 5 0 0 0 14 131 243 274 403 382 377 204 66 127 151 163 141 156 200 260 214 140 143 34 50 448 718 928 1228 1209 1231 1126 978 1205 1222 1269
25 65 35 43 27 27 57 96 109 157 116 55 41 30 30 23 38 22 5 8 28 269 311 344 425 380 280 246 88 60 95 167 218 189 197 199 78 122 443 607 849 1159 1265 1259 1362 1383 1373 1391 1069
50 32 32 23 53 50 173 250 166 158 274 300 250 212 155 103 101 110 120 123 59 90 164 266 348 551 469 429 356 217 215 478 426 312 459 624 674 432 342 402 374 555 1092 1333 1379 1338 1216 1222 1162
24 11 22 48 145 144 196 75 56 122 267 373 364 353 339 334 414 440 336 192 133 102 117 233 328 433 547 539 588 557 480 588 646 574 455 557 811 908 819 671 598 665 783 755 1479 1400 1136 980 829
21 39 25 32 111 89 120 47 61 22 76 124 358 393 383 375 296 319 381 620 412 194 78 117 317 423 518 713 613 529 394 399 492 614 718 527 423 652 920 885 803 655 759 907 1130 1415 1286 953 849
31 0 17 65 69 122 143 182 160 7 88 18 124 347 501 558 577 615 607 539 579 374 162 67 123 252 404 619 549 597 434 540 654 691 742 762 591 408 627 844 771 803 876 959 1087 1056 1033 1036 716
0 0 0 21 138 32 0 162 149 105 109 112 126 238 351 468 515 576 593 585 636 422 203 117 222 248 373 521 669 656 613 627 541 720 558 546 556 592 544 436 423 487 636 691 789 810 782 579 669
0 0 0 0 0 0 0 54 200 127 89 150 295 393 430 431 411 570 542 654 737 684 388 258 296 354 348 401 503 623 723 796 682 552 335 404 450 328 176 154 201 278 634 804 661 291 179 182 156
0 0 0 0 0 0 0 24 79 103 2 4 91 359 534 199 162 254 658 887 967 940 810 491 361 325 243 217 316 536 603 640 566 378 284 117 169 429 634 335 268 148 550 437 167 94 134 74 60
0 0 0 0 0 0 0 0 0 0 26 83 162 308 481 116 241 508 934 977 824 578 570 519 393 367 278 152 156 214 306 380 394 328 229 147 145 245 396 645 542 667 670 211 189 171 109 108 68
0 0 0 0 0 0 0 0 0 0 0 62 193 317 461 257 427 955 1152 540 440 573 687 719 782 1056 1041 828 709 626 553 453 363 364 228 183 249 412 436 417 373 383 281 185 173 176 186 121 124
0 0 0 0 0 0 0 0 0 0 0 0 27 301 380 328 484 1017 796 771 678 818 891 994 1085 1182 1301 1222 1142 989 845 747 579 406 300 298 382 442 225 377 297 187 146 138 123 114 155 153 138
0 0 0 0 0 0 0 0 0 0 0 0 0 0 40 70 590 978 912 985 930 897 956 1069 1166 1125 995 775 548 464 564 761 552 374 320 325 311 231 146 245 220 66 44 109 111 100 124 116 128
CIN
-337 -316 -392 -409 -84 -41 -22 -21 -56 -59 -97 -113 -144 -185 -107 -131 -104 -81 -212 -211 -118 -50 -4 0 -1 -1 -1 0 -16 -22 -24 -17 -27 -22 -14 -13 -15 -14 -8 -8 -7 -15 -14 -13 -32 -23 -27 -59 -69
-373 -322 -426 -275 -20 -6 -12 -37 -25 -64 -80 -115 -123 -131 -119 -119 -175 -226 -238 -201 -81 -31 -6 -6 -2 -2 0 -2 -1 -2 -6 -16 -19 -8 -11 -14 -14 -14 -5 -6 -3 -5 -3 -7 -8 -19 -21 -17 -27
-352 -279 -205 -78 -33 -5 -7 -29 -40 -101 -118 -113 -120 -157 -154 -137 -227 -237 -188 -165 -56 -37 -11 -13 -4 -2 -2 -3 -1 0 -1 -4 -1 -1 -2 -4 -3 -2 -2 0 -2 0 -2 -9 -4 -3 0 -16 -25
-216 -331 -220 -19 -6 -27 -23 -47 -67 -82 -108 -127 -150 -137 -180 -174 -238 -186 -154 -130 -83 -53 -20 -2 -4 -2 -3 0 0 0 -4 -3 0 0 0 0 0 0 0 0 0 0 -3 -10 -3 0 0 -13 -11
-307 -206 -32 -16 -11 -29 -44 -61 -82 -65 -107 -137 -169 -209 -221 -160 -155 -161 -112 -132 -121 -68 -42 -5 0 0 0 0 0 0 0 0 0 0 0 0 -2 0 0 0 0 0 0 0 0 0 -4 -10 -9
-196 -186 -24 -13 -17 -29 -40 -23 -60 -82 -130 -189 -228 -234 -186 -120 -151 -122 -107 -140 -122 -77 -36 -21 0 -1 -2 -3 0 -1 -11 0 0 0 0 0 -1 0 0 -4 0 0 0 -1 -1 0 -1 -2 -5
-172 -88 -40 -34 -20 -18 -36 -67 -33 0 0 0 -13 0 -190 -102 -95 -99 -129 -124 -99 -32 -15 -6 0 0 0 -3 -3 0 -1 0 0 0 0 0 -1 0 -3 -1 0 0 0 0 0 -1 -1 -1 0
-209 -135 -52 -34 -28 -21 -64 -49 0 -1 -2 -139 -183 -167 0 -152 -91 -84 -124 -120 -130 -104 -56 -7 0 0 0 0 0 0 0 0 0 0 0 0 -1 0 0 -2 -3 0 0 0 0 -1 -1 -2 -1
-256 -61 -29 -32 -33 -44 -88 -46 0 0 0 -143 -234 -217 -212 -200 -147 -102 -118 -134 -89 -86 -73 -12 -2 0 0 0 0 -1 0 0 0 0 0 0 -2 -5 -1 -1 -2 0 0 0 0 0 -5 -8 -13
-153 -53 -39 -68 -68 -58 0 -49 -64 -68 0 0 -189 -235 -224 -246 -205 -185 -194 -223 -199 -141 -75 -82 -29 -16 -4 0 0 0 0 -3 -2 -7 0 -2 -2 -1 0 -1 -1 -3 0 0 0 -11 -9 -6 -2
-146 -60 -102 -72 -62 -65 -6 0 -68 -61 0 0 -107 -237 -237 -239 -251 0 0 0 -253 -172 -138 -76 -26 -6 0 -1 0 0 -1 -5 -13 0 0 0 -6 0 -1 -6 -13 -13 -23 -18 -7 -2 -2 -4 -2
-85 -105 -137 -94 -77 -65 -23 -7 0 -67 -47 0 -152 -213 -241 -229 -221 -25 -24 -194 -186 -193 -178 -146 -64 -50 -32 -20 -16 -1 -7 -1 -2 -10 0 -8 -8 -9 -11 -18 -29 -29 -18 -13 -7 -9 -11 -6 -1
-132 -126 -136 -129 -78 -82 -72 -61 -31 0 0 -52 -208 -242 -223 -184 -150 -128 -103 -127 -139 -163 -197 -181 -80 -68 -62 -6 -24 -7 -21 -24 -27 -10 -1 -8 -38 -26 -31 -44 -47 -37 -23 -29 -32 -23 -25 -26 -9
-152 -147 -133 -108 -75 -66 -58 -73 -75 0 -147 -168 0 -86 -188 -172 -145 -114 -103 -92 -137 -148 -182 -182 -123 -99 -105 -60 -56 -37 -38 -46 -23 -43 -52 -25 -64 -32 -45 -53 -51 -30 -23 -21 -24 -27 -32 -42 -37
-100 -96 -99 -94 -98 -73 -85 -67 -100 -183 -215 -168 -192 -224 -227 -165 -116 -107 -82 -67 -92 -113 -152 -220 -177 -124 -131 -106 -86 -68 -60 -51 -61 -89 -72 -33 -72 -98 -79 -58 -34 -28 -36 -38 -32 -36 -40 -49 -52
-117 -27 -49 -79 -88 -93 -80 -48 -140 0 0 0 -195 -196 -205 -172 -136 -107 -95 -96 -104 -110 -152 -223 -266 -223 -167 -187 -128 -124 -109 -110 -108 -103 -69 -61 -75 -107 -95 -69 -49 -36 -41 -30 -33 -36 -33 -30 -38
-46 -55 -74 -67 -100 -99 -106 -51 -124 0 0 -180 -238 -159 -216 -185 -170 -160 -146 -145 -128 -157 -170 -202 -283 -298 -209 -216 -202 -168 -141 -117 -122 -119 -94 -101 -112 -121 -116 -69 -53 -52 -40 -32 -34 -27 -41 -28 -26
-54 -50 -31 -81 -26 -125 -99 -72 -114 -174 -212 -182 -216 -259 -72 0 -8 -127 -193 -170 -183 -188 -202 -188 -233 -264 -251 -225 -226 -215 -199 -172 -138 -146 -157 -142 -169 -167 -104 -68 -67 -55 -42 -33 -36 -41 -27 -35 -25
-99 -85 -80 -81 -133 -135 -89 -97 -101 -176 -233 -211 -225 -243 -243 -227 -217 -245 -87 -301 -326 -261 -251 -258 -222 -223 -240 -239 -296 -313 -253 -202 -177 -181 -143 -147 -167 -135 -90 -68 -61 -56 -42 -36 -35 -25 -29 -30 -58
-110 -73 -56 -89 -128 -141 -85 -51 -98 -173 -199 -213 -197 -190 -206 -231 -243 -256 -261 -286 -355 -328 -332 -291 -275 -254 -278 -259 -244 -253 -230 -181 -165 -160 -130 -111 -95 -96 -104 -96 -76 -67 -36 -38 -31 -28 -17 -32 -59
-63 -58 -51 -55 -112 -154 -116 -30 -51 -116 -158 -171 -197 -202 -197 -188 -180 -206 -253 -282 -343 -384 -399 -343 -310 -303 -312 -278 -248 -245 -221 -213 -185 -164 -148 -128 -97 -80 -88 -84 -83 -64 -51 -29 -28 -28 -25 -14 -43
-24 -101 -109 -102 -70 -27 -152 -11 -43 -83 -60 -97 -90 -127 -146 -171 -226 -233 -235 -211 -249 -301 -469 -474 -397 -358 -332 -330 -271 -259 -235 -191 -217 -165 -117 -133 -125 -89 -74 -80 -82 -77 -48 -46 -40 -35 -28 -20 -10
-42 0 -124 -126 -103 -90 -95 -44 -17 -150 -30 -74 -59 -63 -72 -103 -126 -122 -164 -194 -203 -265 -354 -468 -485 -458 -408 -370 -333 -275 -289 -226 -195 -169 -161 -150 -120 -129 -83 -89 -88 -72 -72 -48 -45 -47 -53 -36 -26
0 0 0 -120 -120 -50 0 -70 -13 -37 -36 -34 -49 -54 -75 -78 -104 -125 -155 -190 -180 -274 -373 -463 -431 -415 -438 -392 -357 -292 -262 -246 -241 -205 -196 -153 -107 -82 -77 -72 -94 -90 -69 -74 -72 -71 -62 -48 -38
0 0 0 0 0 0 0 -113 -27 -61 -102 -73 -53 -39 -47 -106 -117 -114 -127 -135 -156 -198 -331 -433 -456 -387 -468 -452 -387 -321 -255 -207 -215 -216 -237 -148 -110 -96 -160 -121 -65 -59 -55 -70 -97 -90 -86 -49 -32
0 0 0 0 0 0 0 -51 -16 -97 -21 -152 -126 -92 -76 -120 -138 -133 -124 -114 -118 -161 -230 -334 -414 -428 -532 -537 -456 -342 -285 -222 -223 -256 -234 -216 -134 -70 -95 -129 -79 -96 -57 -78 -131 -120 -68 -70 -7
0 0 0 0 0 0 0 0 0 0 -94 -116 -91 -91 -59 -138 -163 -127 -141 -111 -112 -186 -234 -311 -386 -431 -479 -517 -508 -456 -388 -312 -257 -246 -227 -198 -162 -106 -118 -109 -55 -52 -36 -83 -103 -84 -77 -44 0
0 0 0 0 0 0 0 0 0 0 0 -109 -61 -63 -57 -136 -159 -139 -143 -163 -227 -267 -292 -302 -297 -232 -245 -283 -293 -278 -270 -277 -271 -221 -240 -211 -146 -92 -90 -76 -59 -41 -65 -104 -105 -73 -54 -23 0
0 0 0 0 0 0 0 0 0 0 0 0 -65 -109 -91 -134 -158 -144 -156 -204 -217 -235 -231 -234 -233 -197 -196 -211 -203 -191 -184 -177 -194 -206 -195 -150 -93 -79 -83 -45 -40 -44 -66 -72 -65 -53 -10 -1 0
0 0 0 0 0 0 0 0 0 0 0 0 0 0 -288 -347 -194 -175 -182 -199 -199 -199 -206 -192 -219 -201 -229 -267 -316 -325 -260 -150 -181 -198 -179 -123 -100 -91 -90 -26 -3 -51 -70 -7 -32 -44 -19 -2 0
Wind_Speed
18 17 17 17 20 18 18 18 17 18 17 15 21 15 16 12 13 13 21 28 28 30 29 27 26 27 28 27 27 27 28 28 27 27 26 24 23 23 23 22 22 22 21 21 20 20 20 19 18
18 17 17 19 20 16 18 15 20 18 16 16 15 13 15 14 12 14 27 27 28 29 28 27 27 28 28 27 27 27 28 27 27 26 24 23 23 22 22 21 21 21 21 20 20 19 20 19 18
20 18 21 21 19 16 17 17 18 19 17 21 15 12 14 15 14 24 25 28 28 28 27 27 28 27 27 27 27 28 27 26 26 25 24 23 22 22 21 21 21 21 21 21 21 20 20 19 18
18 19 21 21 18 16 16 22 25 20 14 16 16 14 14 14 22 24 26 27 27 27 27 26 27 27 27 27 27 27 26 25 25 24 23 22 22 22 21 21 22 22 22 22 21 20 19 19 18
17 19 21 23 18 16 18 26 22 16 16 17 16 16 14 14 21 24 25 27 27 26 26 25 25 26 26 26 27 26 26 25 25 24 24 23 23 23 22 22 23 23 23 22 21 20 19 19 18
18 19 22 24 17 17 19 24 19 16 16 16 16 16 17 22 24 27 26 26 26 25 25 24 24 24 24 25 26 25 25 24 24 24 24 23 23 23 23 23 23 23 23 22 21 20 19 18 18
20 20 22 21 18 18 19 22 18 17 19 19 21 17 18 24 24 25 25 24 24 24 25 24 24 24 23 24 25 25 25 25 24 24 24 23 24 24 23 23 23 23 22 21 20 19 19 17 15
20 21 20 18 15 17 18 18 16 15 14 22 17 16 21 24 24 24 23 23 23 24 24 23 23 24 24 24 25 25 25 25 24 24 24 23 23 23 23 22 22 22 21 20 19 17 16 14 13
18 20 19 18 17 12 21 18 15 13 20 16 14 15 17 24 24 24 23 23 23 24 24 24 23 24 24 24 24 25 25 24 24 23 23 23 22 22 22 22 21 20 19 18 17 16 14 13 11
17 19 17 18 14 16 20 18 20 15 20 14 12 11 20 21 23 23 24 23 23 24 24 25 24 24 24 25 25 24 25 25 24 24 23 22 21 21 21 21 21 20 19 18 16 15 14 12 11
16 17 17 17 15 15 18 19 19 17 16 15 15 19 20 20 20 23 23 23 23 24 25 24 24 23 23 24 24 24 25 25 25 24 23 22 22 20 20 19 21 21 19 18 16 15 14 13 13
15 15 17 16 15 15 17 19 17 17 14 12 19 21 22 22 21 24 24 23 24 24 24 23 23 22 22 21 21 21 21 22 24 23 22 21 20 20 20 19 19 19 19 19 18 16 15 14 14
16 14 14 15 14 16 18 16 15 15 12 17 20 21 22 22 22 24 24 24 23 23 23 22 22 22 22 22 21 21 21 20 21 21 20 20 21 20 18 18 18 19 21 19 16 13 15 15 15
15 13 14 16 17 16 15 15 15 16 18 19 19 21 22 23 23 24 23 24 23 22 21 21 21 21 21 21 20 20 20 20 19 17 17 16 16 18 18 15 15 15 17 23 19 18 18 16 14
16 15 15 14 15 14 15 15 14 14 16 18 19 20 21 23 24 24 24 24 23 21 19 19 18 19 19 19 17 16 16 17 18 18 14 13 13 15 16 15 14 13 10 16 23 23 22 6 13
17 16 16 16 16 15 15 15 15 16 16 17 19 19 20 22 24 24 24 24 23 22 20 19 18 19 19 18 16 14 13 13 14 14 12 12 12 13 12 13 17 9 18 14 17 21 24 21 14
19 18 17 14 15 14 14 12 13 14 16 17 18 19 19 20 22 23 24 23 22 20 19 18 18 18 18 17 16 15 14 13 12 12 13 13 14 13 12 11 6 25 25 21 22 23 21 22 20
21 20 18 15 15 13 11 10 10 12 15 18 17 17 18 19 19 21 21 21 20 18 18 16 14 15 14 14 14 13 14 15 14 13 12 13 12 13 12 12 11 18 25 27 24 22 23 27 26
19 18 14 14 15 15 14 11 11 14 16 18 19 20 21 21 20 19 18 20 19 18 17 18 18 17 14 14 15 16 16 15 13 11 11 10 10 11 11 10 9 17 30 26 23 26 26 25 22
16 13 16 14 17 17 16 11 13 20 18 19 19 19 20 22 22 21 20 21 21 21 20 19 19 18 17 15 14 13 12 12 11 9 8 9 9 10 11 11 11 12 19 26 25 23 27 26 22
14 15 16 16 18 16 11 16 19 19 15 17 18 18 18 20 20 19 20 21 20 20 19 19 19 18 17 16 11 10 9 8 5 8 9 10 9 10 11 12 12 13 16 20 23 24 24 28 25
16 14 14 15 15 16 16 17 16 16 16 17 18 18 17 17 17 16 15 16 16 17 15 15 15 15 15 13 13 14 13 13 12 10 8 10 11 12 14 15 16 15 15 22 21 25 26 27 28
15 16 16 16 16 14 14 14 15 13 13 16 17 17 15 14 14 14 13 12 12 11 10 8 7 9 10 10 14 14 16 16 13 11 11 12 13 16 17 19 20 18 19 21 20 21 26 28 28
15 18 20 18 16 15 16 12 15 12 11 10 11 11 11 10 9 10 8 8 9 7 5 4 2 3 3 7 10 15 15 16 14 14 13 13 14 16 19 22 23 23 23 24 24 26 27 29 29
14 17 18 17 17 16 16 12 16 12 16 11 9 8 10 12 14 15 13 12 11 10 11 10 6 3 4 5 8 11 15 15 17 17 17 16 17 18 19 19 20 31 23 28 23 29 30 31 28
13 16 16 16 19 18 16 14 17 15 21 24 23 15 13 12 13 15 15 14 15 17 17 14 13 12 11 8 7 8 10 13 15 16 18 20 20 21 25 24 24 26 26 26 25 31 33 41 40
12 13 14 15 17 17 17 20 24 20 21 22 22 11 13 11 13 14 14 14 16 18 18 18 19 19 15 13 11 9 9 10 11 13 14 17 19 20 21 25 26 25 24 26 28 29 35 28 25
11 11 15 16 17 17 19 24 21 24 26 26 25 2 10 18 16 15 13 13 15 17 19 21 22 22 21 19 17 17 15 11 10 10 12 13 14 15 16 17 18 18 21 25 27 30 33 32 24
13 13 16 15 17 18 23 23 17 26 27 28 30 10 14 15 14 12 11 13 14 17 21 22 23 23 23 23 22 22 21 16 13 11 11 11 12 11 12 12 12 13 15 18 23 23 25 28 22
16 16 17 19 20 19 21 22 13 23 32 30 33 23 15 18 14 10 11 13 15 19 22 23 23 24 24 25 26 26 24 20 16 14 12 11 11 10 9 9 9 12 16 18 19 25 22 24 22
Wind_Direction
114 132 118 112 101 116 129 139 160 168 189 212 185 205 200 223 211 215 152 140 120 125 127 124 120 118 124 120 121 121 123 128 128 132 134 132 136 140 143 149 155 157 157 157 159 153 160 156 160
118 127 123 104 117 135 136 155 147 173 197 200 203 222 207 208 219 180 119 123 122 123 125 126 126 125 126 125 126 131 136 137 134 138 137 139 142 146 150 153 158 161 162 162 159 151 170 172 145
110 119 102 104 122 134 140 154 161 164 182 174 200 227 211 207 212 106 123 120 122 124 126 126 130 129 130 130 135 144 146 144 144 143 145 146 147 150 155 159 162 162 164 165 159 152 163 157 164
111 108 101 115 125 142 147 140 138 158 191 195 194 196 213 226 106 133 115 121 122 126 129 126 130 131 135 138 145 149 150 149 149 151 148 148 152 155 160 159 160 162 162 161 161 159 158 164 165
129 110 107 110 130 148 149 128 141 162 174 176 187 182 197 206 130 107 114 126 127 129 130 129 131 134 137 142 148 151 153 152 153 155 154 154 149 151 153 152 154 155 151 154 157 159 158 164 164
118 116 109 106 130 141 147 140 153 163 169 173 168 175 175 148 114 124 123 128 130 128 132 133 136 135 136 141 148 153 158 157 157 156 154 156 154 150 148 146 151 152 152 150 153 157 158 160 159
117 121 115 116 128 140 146 151 165 155 153 156 154 168 173 137 128 125 126 127 130 132 137 139 141 142 141 146 153 158 162 157 157 154 153 151 156 154 152 151 150 149 148 149 152 157 160 152 150
107 120 117 120 134 139 155 168 181 175 171 148 173 166 152 141 127 123 123 128 132 139 140 139 142 145 150 152 158 162 167 163 160 158 157 151 157 158 153 152 156 155 156 157 158 161 160 147 141
141 108 120 128 131 158 149 163 185 204 142 165 198 181 126 115 120 120 123 130 140 147 148 146 144 148 152 159 161 165 168 164 160 159 158 159 154 153 156 157 159 159 163 164 166 167 158 147 124
151 128 149 130 151 140 137 159 158 176 152 187 203 348 95 110 119 125 132 136 143 150 155 157 154 154 156 162 164 164 169 166 164 164 162 163 158 159 162 165 175 173 178 180 176 178 171 149 129
151 142 152 149 163 170 137 126 147 162 162 176 146 92 110 116 119 130 137 141 145 153 155 157 157 156 156 163 167 171 172 172 170 170 165 164 166 163 162 161 175 185 181 185 179 179 171 152 151
165 167 135 165 169 177 157 109 122 143 176 181 118 113 120 128 129 142 146 143 146 153 158 156 159 157 158 157 159 159 162 167 173 172 168 166 166 168 165 163 165 174 184 198 204 196 192 192 168
158 179 194 193 170 127 123 121 125 134 195 66 89 109 123 130 134 149 156 156 150 152 152 155 157 160 162 166 167 167 166 166 170 172 170 168 171 169 161 158 164 174 200 194 189 172 193 200 192
179 208 202 145 137 138 112 88 86 69 101 96 99 111 125 138 140 147 152 156 157 154 153 153 156 159 164 166 167 168 170 172 170 167 169 166 166 168 167 156 156 163 179 226 211 215 221 204 189
212 171 181 195 146 105 8 101 65 76 96 104 118 114 124 141 150 155 157 161 159 152 143 146 148 154 159 164 165 165 167 170 177 178 174 172 171 170 170 169 165 167 157 193 283 232 236 118 178
152 142 126 143 164 113 133 115 128 88 103 108 124 123 131 140 152 159 163 169 165 163 158 151 151 155 161 164 161 162 164 167 173 176 176 180 181 179 176 178 187 286 302 319 317 304 295 310 338
135 121 128 156 143 144 138 119 109 108 115 129 131 133 134 142 157 163 170 173 173 168 164 162 162 166 166 167 165 168 170 173 175 179 184 186 188 190 191 191 201 284 288 298 298 296 304 304 315
96 98 108 115 109 123 124 156 134 117 139 156 144 139 145 148 157 166 174 176 175 173 171 169 165 169 166 165 167 169 174 181 180 183 187 192 196 199 204 207 213 294 290 287 293 299 300 294 297
98 97 117 107 89 79 98 129 146 115 142 158 160 168 175 177 176 176 178 182 182 181 180 182 181 181 172 172 174 178 185 183 183 184 189 196 206 214 220 231 257 288 283 289 292 292 294 295 300
106 125 88 103 68 91 101 142 146 91 139 158 164 169 179 186 189 191 187 186 189 191 190 189 190 186 184 183 184 182 186 192 195 194 199 204 214 222 226 243 252 270 288 286 288 290 290 291 294
109 90 65 63 52 88 162 105 100 70 169 162 160 161 168 173 181 188 191 192 194 196 193 197 198 196 195 195 188 194 202 207 215 223 229 226 227 238 245 252 264 275 281 284 285 286 286 287 290
65 80 73 72 81 62 77 63 109 82 112 141 149 142 142 142 159 172 164 172 178 186 184 189 193 198 201 198 201 206 213 219 225 235 261 267 269 263 269 269 269 269 275 284 281 284 283 284 284
60 65 71 68 67 70 57 64 38 48 103 127 143 159 151 142 159 168 160 150 158 158 164 170 178 195 203 207 214 219 224 229 235 244 260 280 290 285 282 281 277 271 278 282 280 279 280 280 280
79 54 41 55 67 51 46 60 8 64 53 68 83 98 125 85 71 150 133 82 137 117 111 94 111 206 232 230 232 231 237 241 247 249 259 269 281 294 294 286 284 280 276 280 282 282 281 279 276
57 18 21 26 28 21 20 50 334 15 321 356 9 42 16 358 354 350 10 26 29 28 13 4 9 346 336 281 258 251 248 256 254 259 259 271 275 285 293 294 285 283 277 278 278 285 285 283 280
34 22 22 25 10 6 4 16 354 354 301 270 289 325 341 349 353 353 2 8 6 359 357 7 9 2 354 339 308 288 274 265 263 266 263 264 266 276 290 294 291 287 281 279 278 291 284 285 285
41 33 33 13 5 4 357 341 280 323 309 300 295 340 326 342 345 347 352 358 357 3 8 9 5 2 2 358 347 329 309 288 273 272 275 268 269 269 278 289 292 289 282 282 282 288 290 291 290
25 37 7 2 353 353 351 337 338 316 303 297 290 34 335 315 327 337 351 357 359 1 2 0 1 359 358 355 353 348 341 328 307 293 281 275 275 271 275 282 285 286 286 284 285 291 290 288 290
14 14 357 4 353 346 337 334 1 322 310 305 287 259 325 324 327 336 346 347 353 356 354 351 352 353 353 351 348 345 343 338 329 316 305 289 289 280 274 278 281 279 289 294 293 286 290 287 286
10 7 359 345 346 347 341 339 8 350 315 321 310 326 318 319 320 326 334 338 343 346 347 347 349 349 349 348 344 342 341 339 335 332 323 310 300 291 285 280 278 287 297 298 289 286 289 281 281